[[{"header":{"parameterUnit":"m.s-1","parameterCategory":1,"la1":30.2991,"la2":30.254,"lo1":-89.0895,"lo2":-89.0444,"dy":0.0017,"dx":0.0017,"nx":28,"ny":28,"refTime":"2024-05-16T03:00:00:Z","depth":0,"parameterNumber":2,"parameterNumberName":"U-component_of_WINDS"},"data":[0,0,0,0,0,0,0,0,0,0,0,0,0,0,0,0,0,0,0,0,0,0,0,0,0,0,0,0,0,0,0,0,0,0,0,0,0,0,0,0,0,0,0,0,0,0,0,0,0,0,0,0,0,0,0,0,0,0,-2.7234,-2.7233,0,-2.7156,-2.7155,-2.7154,-2.7074,-2.7073,-2.7072,-2.7071,-2.699,-2.6988,-2.6987,0,0,0,0,0,0,0,0,0,0,0,0,0,-2.7314,-2.7313,-2.7234,-2.7233,-2.7232,-2.7156,-2.7155,-2.7154,-2.7075,-2.7073,-2.7072,-2.7071,-2.699,-2.6989,-2.6987,0,0,0,0,0,0,0,0,0,0,0,0,0,-2.7262,-2.7313,-2.7234,-2.7183,-2.7178,-2.7156,-2.7155,-2.7153,-2.7075,-2.7073,-2.7072,-2.707,-2.699,-2.6989,-2.6987,-2.7008,0,0,-2.6982,-2.6981,0,0,0,0,0,0,0,0,-2.7265,-2.7259,-2.7192,-2.7187,-2.7181,-2.7123,-2.7153,-2.7105,-2.7075,-2.7114,-2.7071,-2.7069,-2.7035,-2.703,-2.7018,-2.7004,-2.7001,-2.6981,-2.698,-2.698,-2.6979,0,0,0,0,0,0,0,-2.7269,-2.7262,-2.7203,-2.7191,-2.7184,-2.7164,-2.7155,-2.7143,-2.7085,-2.7111,-2.7105,-2.7097,-2.7032,-2.702,-2.7016,-2.7,-2.6981,-2.698,-2.6979,-2.6978,-2.7,-2.7001,0,0,0,0,0,0,-2.728,-2.7266,-2.7205,-2.7201,-2.722,-2.7164,-2.7154,-2.7143,-2.7084,-2.7074,-2.7098,-2.7093,-2.7024,-2.7018,-2.7013,-2.7034,-2.698,-2.6978,-2.6977,-2.6998,-2.7,-2.7002,0,0,0,0,0,0,-2.7282,-2.7276,-2.7209,-2.7231,-2.7221,-2.7165,-2.7153,-2.7143,-2.7131,-2.7075,-2.7064,-2.7097,-2.7023,-2.7015,-2.701,-2.703,-2.6977,-2.6976,-2.6996,-2.6999,-2.7001,-2.7076,0,0,0,0,0,0,-2.7285,-2.7277,-2.7284,-2.7232,-2.7221,-2.7208,-2.7154,-2.7142,-2.7128,-2.7121,-2.7071,-2.7061,-2.7021,-2.7013,-2.7008,-2.7026,-2.6974,-2.6994,-2.6997,-2.7,-2.7072,-2.7081,-2.7089,0,0,0,0,0,-2.7288,-2.7308,-2.7285,-2.7278,-2.7229,-2.7209,-2.7202,-2.7156,-2.713,-2.7137,-2.7102,-2.7063,-2.7029,-2.7013,-2.7007,-2.7025,-2.6993,-2.6996,-2.7,-2.7068,-2.7079,-2.7089,0,0,0,0,0,0,-2.7363,-2.73,-2.7274,-2.7278,-2.725,-2.7196,-2.7203,-2.7169,-2.7146,-2.7141,-2.7084,-2.7073,-2.7075,-2.7049,-2.7033,-2.7043,-2.7005,-2.7008,-2.7059,-2.7069,-2.7078,-2.7083,-2.6973,0,0,0,0,0,-2.738,-2.737,-2.7315,-2.7324,-2.7311,-2.726,-2.7249,-2.7216,-2.7184,-2.7172,-2.7135,-2.7105,-2.7088,-2.7077,-2.7058,-2.7068,-2.7056,-2.7078,-2.7086,-2.7094,-2.7096,-2.71,-2.7109,-2.7014,-2.7014,-2.7014,0,0,-2.7415,-2.7379,-2.7376,-2.7338,-2.7312,-2.7302,-2.725,-2.7242,-2.7234,-2.717,-2.7163,-2.7136,-2.7099,-2.7102,-2.7101,-2.708,-2.712,-2.7098,-2.7105,-2.7103,-2.7105,-2.7114,-2.7122,-2.7016,-2.7016,-2.7016,0,0,-2.7473,-2.7446,-2.745,-2.7426,-2.7387,-2.7353,-2.7355,-2.7306,-2.7286,-2.7278,-2.7231,-2.7221,-2.7192,-2.7167,-2.7151,-2.7203,-2.7166,-2.7198,-2.7242,-2.7247,-2.7255,-2.7261,-2.7279,-2.7286,-2.7201,-2.7201,-2.7202,0,-2.7521,-2.7505,-2.7456,-2.7451,-2.7436,-2.7379,-2.7383,-2.7362,-2.7319,-2.731,-2.7288,-2.7252,-2.7222,-2.7219,-2.7232,-2.7221,-2.722,-2.7203,-2.7258,-2.7263,-2.7269,-2.7285,-2.7292,-2.7205,-2.7205,-2.7205,-2.7204,0,-2.7566,-2.7555,-2.7563,-2.7525,-2.7511,-2.751,-2.7462,-2.7453,-2.7422,-2.7391,-2.7384,-2.7348,-2.732,-2.7317,-2.7286,-2.731,-2.7298,-2.7268,-2.7229,-2.7283,-2.7297,-2.7303,-2.7211,-2.721,-2.7209,-2.7208,0,0,-2.7667,-2.7603,-2.7607,-2.7589,-2.7544,-2.7534,-2.7532,-2.7506,-2.75,-2.7473,-2.7469,-2.7447,-2.7419,-2.7401,-2.7367,-2.7371,-2.7415,-2.734,-2.7338,-2.7355,-2.7439,-2.7461,-2.747,-2.7391,-2.7392,-2.7393,-2.7442,0,-2.7718,-2.7709,-2.7667,-2.7671,-2.7661,-2.7608,-2.7606,-2.7578,-2.7549,-2.7536,-2.7503,-2.7489,-2.7453,-2.7442,-2.7444,-2.7409,-2.7431,-2.7405,-2.7386,-2.7386,-2.7397,-2.7477,-2.7501,-2.7548,-2.7447,-2.7448,-2.7449,0,-2.7774,-2.7752,-2.7756,-2.7712,-2.7706,-2.7705,-2.7678,-2.7667,-2.7634,-2.7613,-2.7594,-2.7556,-2.755,-2.7515,-2.7507,-2.749,-2.748,-2.7463,-2.7463,-2.7459,-2.742,-2.7474,-2.7562,-2.757,-2.7457,-2.7457,-2.7456,0,-2.7848,-2.7819,-2.7818,-2.7804,-2.7752,-2.7753,-2.7731,-2.7697,-2.7685,-2.7662,-2.7653,-2.763,-2.7617,-2.76,-2.7557,-2.7535,-2.7553,-2.7514,-2.7535,-2.7536,-2.754,-2.754,-2.7627,-2.7535,-2.7535,-2.7535,-2.7535,0,-2.7908,-2.7913,-2.785,-2.7849,-2.7853,-2.7804,-2.7809,-2.7782,-2.7753,-2.7746,-2.7698,-2.7693,-2.7637,-2.7625,-2.7592,-2.759,-2.7584,-2.7567,-2.7558,-2.7571,-2.7573,-2.7562,-2.7558,-2.7537,-2.7537,-2.7536,-2.7536,0,-2.7991,-2.7949,-2.7944,-2.7896,-2.7884,-2.7889,-2.7848,-2.7845,-2.7814,-2.7806,-2.7801,-2.7752,-2.7736,-2.7692,-2.7664,-2.7641,-2.7649,-2.7632,-2.766,-2.7654,-2.7677,-2.7676,-2.776,-2.7769,-2.7672,-2.7673,-2.7674,0,-2.8031,-2.8034,-2.7986,-2.7979,-2.7959,-2.7947,-2.7935,-2.7887,-2.7876,-2.784,-2.7842,-2.7822,-2.7803,-2.778,-2.7742,-2.772,-2.7703,-2.7734,-2.7699,-2.7712,-2.7703,-2.7703,-2.7703,-2.7741,-2.7742,-2.7743,-2.7744,0,-2.8108,-2.8088,-2.8072,-2.8049,-2.8036,-2.8015,-2.7992,-2.7989,-2.7935,-2.7925,-2.7908,-2.7894,-2.7866,-2.7847,-2.782,-2.7798,-2.7762,-2.7756,-2.7759,-2.7772,-2.7788,-2.778,-2.768,-2.7754,-2.7753,-2.7752,-2.7752,-2.7751,-2.8171,-2.817,-2.8137,-2.8121,-2.8099,-2.8079,-2.8074,-2.8043,-2.8029,-2.8003,-2.7975,-2.7962,-2.793,-2.789,-2.787,-2.7859,-2.784,-2.7846,-2.7847,-2.7849,-2.7855,-2.7791,-2.7854,-2.7854,-2.7853,-2.7853,-2.7853,0,-2.8245,-2.8221,-2.8207,-2.8177,-2.8165,-2.8133,-2.8106,-2.8098,-2.8087,-2.806,-2.8044,-2.8025,-2.8006,-2.7968,-2.7946,-2.7944,-2.7927,-2.794,-2.7939,-2.7935,-2.7873,-2.7872,-2.7954,-2.7954,-2.7954,-2.7954,-2.7954,-2.7954,-2.8282,-2.828,-2.8256,-2.8243,-2.8219,-2.8206,-2.8194,-2.8175,-2.8154,-2.8135,-2.812,-2.8095,-2.8063,-2.8039,-2.8021,-2.801,-2.8004,-2.8022,-2.8006,-2.7948,-2.7939,-2.793,-2.7928,-2.8021,-2.8021,-2.8068,-2.8069,-2.8069]},{"header":{"parameterUnit":"m.s-1","parameterCategory":1,"la1":30.2991,"la2":30.254,"lo1":-89.0895,"lo2":-89.0444,"dy":0.0017,"dx":0.0017,"nx":28,"ny":28,"refTime":"2024-05-16T03:00:00:Z","depth":0,"parameterNumber":3,"parameterNumberName":"V-component_of_WINDS"},"data":[0,0,0,0,0,0,0,0,0,0,0,0,0,0,0,0,0,0,0,0,0,0,0,0,0,0,0,0,0,0,0,0,0,0,0,0,0,0,0,0,0,0,0,0,0,0,0,0,0,0,0,0,0,0,0,0,0,0,3.0084,3.0084,0,3.0119,3.0119,3.012,3.0165,3.0165,3.0166,3.0167,3.0201,3.0201,3.0201,0,0,0,0,0,0,0,0,0,0,0,0,0,3.0055,3.0056,3.0084,3.0084,3.0085,3.0119,3.0119,3.012,3.0164,3.0165,3.0166,3.0167,3.0201,3.0201,3.0201,0,0,0,0,0,0,0,0,0,0,0,0,0,3.0077,3.0056,3.0084,3.0111,3.0114,3.0119,3.0119,3.012,3.0164,3.0165,3.0166,3.0168,3.02,3.0201,3.0201,3.0181,0,0,3.0202,3.0202,0,0,0,0,0,0,0,0,3.0075,3.0078,3.0107,3.011,3.0113,3.0139,3.0122,3.014,3.0164,3.0145,3.0167,3.0168,3.0179,3.0181,3.0185,3.0183,3.0184,3.0202,3.0202,3.0202,3.0203,0,0,0,0,0,0,0,3.0074,3.0076,3.0098,3.0107,3.0111,3.0122,3.0126,3.0125,3.0155,3.0147,3.015,3.0154,3.0181,3.0185,3.0186,3.0185,3.0202,3.0202,3.0203,3.0203,3.0168,3.0167,0,0,0,0,0,0,3.0068,3.0075,3.0097,3.0099,3.0096,3.0121,3.0126,3.0129,3.0156,3.0161,3.0153,3.0156,3.0184,3.0186,3.0188,3.0167,3.0202,3.0203,3.0203,3.0169,3.0168,3.0167,0,0,0,0,0,0,3.0068,3.007,3.0095,3.0088,3.0092,3.0121,3.0124,3.0129,3.0133,3.016,3.0166,3.0152,3.0185,3.0187,3.0183,3.0169,3.0203,3.0203,3.017,3.0169,3.0167,3.0124,0,0,0,0,0,0,3.0067,3.0069,3.0062,3.0087,3.0092,3.009,3.0123,3.0129,3.0134,3.0138,3.016,3.0165,3.0186,3.0182,3.0183,3.017,3.0203,3.0172,3.017,3.0168,3.0127,3.0121,3.0116,0,0,0,0,0,3.0065,3.0048,3.0062,3.0064,3.0084,3.0089,3.0092,3.0116,3.0133,3.0126,3.0143,3.0164,3.017,3.0181,3.0183,3.0169,3.0173,3.017,3.0168,3.013,3.0122,3.0117,0,0,0,0,0,0,3.002,3.0052,3.0067,3.0058,3.007,3.0097,3.0089,3.0108,3.0116,3.0119,3.0149,3.0154,3.0146,3.0157,3.0169,3.0152,3.0175,3.0172,3.0145,3.0138,3.0133,3.0131,3.0204,0,0,0,0,0,3.0009,3.0011,3.0039,3.0028,3.0033,3.006,3.0063,3.0081,3.0095,3.01,3.0117,3.013,3.0134,3.0137,3.0142,3.0129,3.0134,3.012,3.0115,3.011,3.0108,3.0103,3.0097,3.0158,3.0158,3.0158,0,0,2.9987,3.0004,3.0003,3.0019,3.0031,3.0032,3.0064,3.0064,3.0065,3.01,3.0098,3.011,3.0126,3.0117,3.0114,3.0126,3.0092,3.0107,3.0103,3.0104,3.0099,3.0093,3.0088,3.0157,3.0157,3.0157,0,0,2.9946,2.9959,2.9952,2.9964,2.9981,2.9999,2.9997,3.0021,3.0031,3.0028,3.0055,3.0057,3.0064,3.0074,3.008,3.0044,3.0064,3.0045,3.0017,3.0011,3.0007,3.0003,2.999,2.9986,3.0042,3.0042,3.0042,0,2.9916,2.9919,2.9946,2.9944,2.9951,2.9983,2.9976,2.9985,3.0004,3.0007,3.0021,3.0031,3.0044,3.0038,3.0029,3.0033,3.0032,3.0043,3.0005,3.0001,2.9998,2.9987,2.9982,3.004,3.004,3.004,3.0041,0,2.9881,2.9883,2.9875,2.9893,2.9898,2.9894,2.992,2.9921,2.9939,2.9955,2.9952,2.9969,2.9979,2.9978,2.9995,2.9975,2.9982,3.0,3.0024,2.9989,2.9979,2.9975,3.0037,3.0037,3.0038,3.0039,0,0,2.9814,2.9847,2.9844,2.9853,2.9875,2.9877,2.9873,2.9884,2.9885,2.9896,2.9895,2.99,2.9917,2.9924,2.9942,2.9937,2.9908,2.9955,2.9956,2.9947,2.9888,2.9876,2.987,2.9921,2.992,2.992,2.9887,0,2.9779,2.9776,2.98,2.9791,2.9794,2.9824,2.9822,2.9835,2.9849,2.9853,2.987,2.9873,2.9895,2.9899,2.9895,2.9912,2.9897,2.9915,2.992,2.992,2.9917,2.9865,2.9852,2.982,2.9883,2.9883,2.9882,0,2.9737,2.9748,2.9739,2.9762,2.9764,2.9761,2.9773,2.9776,2.9791,2.9803,2.9811,2.9831,2.983,2.9852,2.985,2.9862,2.9865,2.9874,2.9873,2.9876,2.99,2.9867,2.9811,2.9806,2.9876,2.9877,2.9877,0,2.9691,2.9702,2.9699,2.9705,2.9731,2.9729,2.974,2.9756,2.9761,2.9771,2.9775,2.9784,2.9789,2.9795,2.9818,2.9832,2.9814,2.9837,2.9824,2.9823,2.9819,2.982,2.9764,2.9819,2.9819,2.982,2.982,0,2.965,2.9644,2.9678,2.9676,2.967,2.9697,2.969,2.9704,2.9718,2.972,2.9746,2.9746,2.9775,2.9779,2.9796,2.9793,2.9794,2.9804,2.9809,2.9802,2.9801,2.9805,2.9809,2.9818,2.9819,2.9819,2.9819,0,2.9597,2.962,2.9619,2.9644,2.965,2.9645,2.9666,2.9665,2.9682,2.9683,2.9684,2.971,2.9715,2.9738,2.9749,2.9761,2.9752,2.976,2.9747,2.975,2.9735,2.9737,2.9682,2.9676,2.9734,2.9733,2.9733,0,2.957,2.9566,2.9591,2.9594,2.9604,2.9608,2.9614,2.964,2.9644,2.9661,2.9658,2.9666,2.9674,2.9681,2.97,2.9709,2.9719,2.9699,2.972,2.9714,2.972,2.972,2.972,2.9694,2.9694,2.9693,2.9693,0,2.952,2.9532,2.9539,2.955,2.9555,2.9565,2.9576,2.9577,2.9606,2.9609,2.9616,2.9622,2.9633,2.964,2.9652,2.9663,2.9683,2.9685,2.9683,2.9677,2.967,2.9675,2.9736,2.9687,2.9688,2.9688,2.9688,2.9688,2.9481,2.9479,2.9497,2.9503,2.9515,2.9524,2.9525,2.9542,2.9548,2.9559,2.9574,2.9579,2.9594,2.9612,2.9621,2.9625,2.9636,2.9632,2.9631,2.963,2.9627,2.9668,2.9627,2.9627,2.9627,2.9627,2.9627,0,2.9433,2.9446,2.9452,2.9467,2.9472,2.9491,2.9504,2.9507,2.9511,2.9524,2.9531,2.9538,2.9546,2.9565,2.9575,2.9574,2.9583,2.9575,2.9576,2.9579,2.9616,2.9618,2.9568,2.9568,2.9568,2.9568,2.9568,2.9568,2.9409,2.9408,2.9421,2.9425,2.9438,2.9443,2.9449,2.9458,2.9469,2.9476,2.9483,2.9496,2.9511,2.9522,2.9529,2.9535,2.9538,2.9527,2.9536,2.957,2.9576,2.9581,2.9584,2.9527,2.9527,2.9498,2.9498,2.9498]}]]